Home   Weather   Bakersfield   Past weeks

Flag for USA Past Weather in Bakersfield, California, USA — Yesterday and Last 2 Weeks

Now
61 °F

Sunny.


Feels Like: 61 °F
Forecast: 50 / 82 °F
Wind: 5 mph from Southeast

Location: Meadows Field

Current Time: Apr 29, 2017 at 8:29:36 am

Latest Report: Apr 29, 2017 at 7:54 am


Visibility: 10 mi

Pressure: 30.08 "Hg

Humidity: 35%

Dew Point: 33 °F

Location of BakersfieldLocation

Past Weather in Bakersfield — Graph

°F

Bakersfield Temperature Yesterday

Maximum temperature yesterday: 77 °F (at 3:54 pm)
Minimum temperature yesterday: 50 °F (at 6:54 am)
Average temperature yesterday: 64 °F

High & Low Weather Summary for the Past Weeks

 TemperatureHumidityPressure
High85 °F (Apr 16, 12:54 pm)96% (Apr 19, 1:43 am)30.24 "Hg (Apr 19, 1:43 am)
Low45 °F (Apr 15, 3:54 am)15% (Apr 16, 3:54 pm)29.85 "Hg (Apr 27, 5:54 pm)
Average64 °F54%30.02 "Hg
* Reported Apr 14 6:54 am — Apr 29 6:54 am, Bakersfield, Weather by CustomWeather, © 2017

Note: Actual official high and low records may vary slightly from our data, if they occured in-between our weather recording intervals... More about our weather records

Advertising

Bakersfield Weather History for the Previous 24 Hours

Scroll right to see more
 ConditionsComfort  
Time TempWeatherWind HumidityBarometerVisibility
6:54 am
Sat, Apr 29
55 °FSunny.5 mph44%30.05 "Hg10 mi
5:54 am51 °FClear.6 mph54%30.03 "Hg10 mi
4:54 am55 °FClear.No wind44%30.02 "Hg10 mi
3:54 am57 °FClear.3 mph39%30.01 "Hg10 mi
2:54 am58 °FClear.5 mph39%29.99 "Hg10 mi
1:54 am58 °FClear.7 mph38%30.00 "Hg10 mi
12:54 am59 °FClear.6 mph39%29.99 "Hg10 mi
11:54 pm
Fri, Apr 28
59 °FClear.No wind32%29.97 "Hg10 mi
10:54 pm61 °FClear.No wind30%29.96 "Hg10 mi
9:54 pm62 °FClear.7 mph27%29.94 "Hg10 mi
8:54 pm64 °FClear.8 mph26%29.91 "Hg10 mi
7:54 pm68 °FClear.9 mph24%29.88 "Hg10 mi
6:54 pm74 °FSunny.13 mph21%29.87 "Hg10 mi
5:54 pm76 °FSunny.14 mph21%29.86 "Hg10 mi
4:54 pm77 °FSunny.18 mph20%29.86 "Hg10 mi
3:54 pm77 °FSunny.20 mph20%29.87 "Hg10 mi
2:54 pm76 °FSunny.13 mph24%29.89 "Hg10 mi
1:54 pm75 °FSunny.12 mph26%29.90 "Hg10 mi
12:54 pm73 °FSunny.13 mph27%29.94 "Hg10 mi
11:54 am69 °FSunny.10 mph35%29.96 "Hg10 mi
10:54 am66 °FSunny.8 mph42%29.97 "Hg10 mi
9:54 am63 °FSunny.8 mph48%29.97 "Hg10 mi
8:54 am61 °FSunny.5 mph50%29.97 "Hg10 mi
Weather by CustomWeather, © 2017

See weather overviewHow to use our weather pages